Time,TemperatureF,DewpointF,PressureIn,WindDirection,WindDirectionDegrees,WindSpeedMPH,WindSpeedGustMPH,Humidity,HourlyPrecipIn,Conditions,Clouds,dailyrainin,SolarRadiationWatts/m^2,SoftwareType,DateUTC
2013-03-25 00:00:00,37.9,27.9,29.74,SSE,157,0.0,0.0,67,0.00,CLR,BKN,0.00,0.0,WeatherDisplay:10.37,2013-03-25 04:00:00,
2013-03-25 00:01:00,37.9,27.9,29.74,SSE,157,0.0,0.0,67,0.00,CLR,BKN,0.00,0.0,WeatherDisplay:10.37,2013-03-25 04:01:00,
2013-03-25 00:04:00,37.9,27.9,29.74,SSE,157,0.0,0.0,67,0.00,CLR,BKN,0.00,0.0,WeatherDisplay:10.37,2013-03-25 04:04:00,
2013-03-25 00:09:00,37.8,28.2,29.74,SSE,157,1.1,1.1,68,0.00,CLR,BKN,0.00,0.0,WeatherDisplay:10.37,2013-03-25 04:09:00,
2013-03-25 00:14:00,37.8,28.2,29.73,SSE,157,0.0,0.0,68,0.00,CLR,BKN,0.00,0.0,WeatherDisplay:10.37,2013-03-25 04:14:00,
2013-03-25 00:19:00,37.7,28.1,29.73,SSE,157,2.3,2.3,68,0.00,CLR,BKN,0.00,0.0,WeatherDisplay:10.37,2013-03-25 04:19:00,
2013-03-25 00:24:00,37.7,28.1,29.73,SSE,157,1.1,1.1,68,0.00,CLR,BKN,0.00,0.0,WeatherDisplay:10.37,2013-03-25 04:24:00,
2013-03-25 00:29:00,37.6,28.3,29.73,SSE,157,0.0,0.0,69,0.00,CLR,BKN,0.00,0.0,WeatherDisplay:10.37,2013-03-25 04:29:00,
2013-03-25 00:34:00,37.6,28.3,29.73,SSE,157,2.3,2.3,69,0.00,CLR,BKN,0.00,0.0,WeatherDisplay:10.37,2013-03-25 04:34:00,
2013-03-25 00:39:00,37.5,28.2,29.73,SE,145,2.3,2.3,69,0.00,CLR,BKN,0.00,0.0,WeatherDisplay:10.37,2013-03-25 04:39:00,
2013-03-25 00:44:00,37.4,28.2,29.73,SE,135,1.1,0.0,69,0.00,CLR,BKN,0.00,0.0,WeatherDisplay:10.37,2013-03-25 04:44:00,
2013-03-25 00:49:00,37.3,28.1,29.73,SE,130,5.0,5.0,69,0.00,CLR,BKN,0.00,0.0,WeatherDisplay:10.37,2013-03-25 04:49:00,
2013-03-25 00:54:00,37.2,28.3,29.72,SE,126,3.5,3.5,70,0.00,CLR,BKN,0.00,0.0,WeatherDisplay:10.37,2013-03-25 04:54:00,
2013-03-25 00:59:00,37.2,28.3,29.72,ESE,123,3.5,3.5,70,0.00,CLR,BKN,0.00,0.0,WeatherDisplay:10.37,2013-03-25 04:59:00,
2013-03-25 01:04:00,37.2,28.3,29.72,ESE,122,3.5,3.5,70,0.00,CLR,BKN,0.00,0.0,WeatherDisplay:10.37,2013-03-25 05:04:00,
2013-03-25 01:09:00,37.2,28.3,29.72,ESE,123,0.0,0.0,70,0.00,CLR,BKN,0.00,0.0,WeatherDisplay:10.37,2013-03-25 05:09:00,
2013-03-25 01:14:00,37.2,28.3,29.72,ESE,123,0.0,0.0,70,0.00,CLR,BKN,0.00,0.0,WeatherDisplay:10.37,2013-03-25 05:14:00,
2013-03-25 01:19:00,37.2,28.3,29.73,ESE,123,0.0,0.0,70,0.00,CLR,BKN,0.00,0.0,WeatherDisplay:10.37,2013-03-25 05:19:00,
2013-03-25 01:24:00,37.2,28.3,29.73,ESE,123,0.0,0.0,70,0.00,CLR,BKN,0.00,0.0,WeatherDisplay:10.37,2013-03-25 05:24:00,
2013-03-25 01:29:00,37.3,28.4,29.73,ESE,123,3.5,3.5,70,0.00,CLR,BKN,0.00,0.0,WeatherDisplay:10.37,2013-03-25 05:29:00,
2013-03-25 01:34:00,37.2,28.3,29.73,ESE,123,0.0,0.0,70,0.00,CLR,BKN,0.00,0.0,WeatherDisplay:10.37,2013-03-25 05:34:00,
2013-03-25 01:39:00,37.3,28.4,29.73,ESE,123,0.0,0.0,70,0.00,CLR,BKN,0.00,0.0,WeatherDisplay:10.37,2013-03-25 05:39:00,
2013-03-25 01:44:00,37.2,28.3,29.73,ESE,123,0.0,0.0,70,0.00,CLR,BKN,0.00,0.0,WeatherDisplay:10.37,2013-03-25 05:44:00,
2013-03-25 01:49:00,37.3,28.4,29.73,ESE,123,0.0,0.0,70,0.00,CLR,BKN,0.00,0.0,WeatherDisplay:10.37,2013-03-25 05:49:00,
2013-03-25 01:54:00,37.3,28.4,29.73,ESE,123,0.0,0.0,70,0.00,CLR,BKN,0.00,0.0,WeatherDisplay:10.37,2013-03-25 05:54:00,
2013-03-25 01:59:00,37.3,28.4,29.72,ESE,123,0.0,0.0,70,0.00,CLR,BKN,0.00,0.0,WeatherDisplay:10.37,2013-03-25 05:59:00,
2013-03-25 02:04:00,37.2,28.7,29.72,ESE,123,0.0,0.0,71,0.00,CLR,BKN,0.00,0.0,WeatherDisplay:10.37,2013-03-25 06:04:00,
2013-03-25 02:09:00,37.2,28.3,29.72,ESE,123,0.0,0.0,70,0.00,CLR,BKN,0.00,0.0,WeatherDisplay:10.37,2013-03-25 06:09:00,
2013-03-25 02:14:00,37.2,28.3,29.71,ESE,123,0.0,0.0,70,0.00,CLR,BKN,0.00,0.0,WeatherDisplay:10.37,2013-03-25 06:14:00,
2013-03-25 02:19:00,37.1,28.6,29.71,ESE,123,0.0,0.0,71,0.00,CLR,BKN,0.00,0.0,WeatherDisplay:10.37,2013-03-25 06:19:00,
2013-03-25 02:24:00,37.1,28.6,29.71,ESE,123,0.0,0.0,71,0.00,CLR,BKN,0.00,0.0,WeatherDisplay:10.37,2013-03-25 06:24:00,
2013-03-25 02:29:00,37.0,28.5,29.71,ESE,123,0.0,0.0,71,0.00,CLR,BKN,0.00,0.0,WeatherDisplay:10.37,2013-03-25 06:29:00,
2013-03-25 02:34:00,37.0,28.5,29.71,ESE,123,0.0,0.0,71,0.00,CLR,BKN,0.00,0.0,WeatherDisplay:10.37,2013-03-25 06:34:00,
2013-03-25 02:39:00,36.8,28.3,29.70,ESE,123,0.0,0.0,71,0.00,CLR,BKN,0.00,0.0,WeatherDisplay:10.37,2013-03-25 06:39:00,
2013-03-25 02:44:00,36.8,28.3,29.70,ESE,123,0.0,0.0,71,0.00,CLR,BKN,0.00,0.0,WeatherDisplay:10.37,2013-03-25 06:44:00,
2013-03-25 02:49:00,36.7,28.5,29.70,ESE,123,0.0,0.0,72,0.00,CLR,BKN,0.00,0.0,WeatherDisplay:10.37,2013-03-25 06:49:00,
2013-03-25 02:54:00,36.7,28.5,29.69,ESE,123,0.0,0.0,72,0.00,CLR,BKN,0.00,0.0,WeatherDisplay:10.37,2013-03-25 06:54:00,
2013-03-25 02:59:00,36.7,28.5,29.69,ESE,123,0.0,0.0,72,0.00,CLR,BKN,0.00,0.0,WeatherDisplay:10.37,2013-03-25 06:59:00,
2013-03-25 03:04:00,36.8,28.6,29.69,ESE,123,0.0,0.0,72,0.00,CLR,BKN,0.00,0.0,WeatherDisplay:10.37,2013-03-25 07:04:00,
2013-03-25 03:09:00,36.7,28.5,29.69,ESE,123,0.0,0.0,72,0.00,CLR,BKN,0.00,0.0,WeatherDisplay:10.37,2013-03-25 07:09:00,
2013-03-25 03:14:00,36.7,28.5,29.69,ESE,123,0.0,0.0,72,0.00,CLR,BKN,0.00,0.0,WeatherDisplay:10.37,2013-03-25 07:14:00,
2013-03-25 03:19:00,36.5,28.7,29.69,ESE,123,0.0,0.0,73,0.00,CLR,BKN,0.00,0.0,WeatherDisplay:10.37,2013-03-25 07:19:00,
2013-03-25 03:24:00,36.4,28.6,29.68,ESE,123,0.0,0.0,73,0.00,CLR,BKN,0.00,0.0,WeatherDisplay:10.37,2013-03-25 07:24:00,
2013-03-25 03:29:00,36.3,28.5,29.68,ESE,123,0.0,0.0,73,0.00,CLR,BKN,0.00,0.0,WeatherDisplay:10.37,2013-03-25 07:29:00,
2013-03-25 03:34:00,36.2,28.7,29.67,ESE,123,0.0,0.0,74,0.00,CLR,BKN,0.00,0.0,WeatherDisplay:10.37,2013-03-25 07:34:00,
2013-03-25 03:39:00,36.2,28.7,29.67,ESE,123,0.0,0.0,74,0.00,CLR,BKN,0.00,0.0,WeatherDisplay:10.37,2013-03-25 07:39:00,
2013-03-25 03:44:00,36.1,28.6,29.67,ESE,123,0.0,0.0,74,0.00,CLR,BKN,0.00,0.0,WeatherDisplay:10.37,2013-03-25 07:44:00,
2013-03-25 03:49:00,36.2,28.7,29.67,ESE,123,0.0,0.0,74,0.00,CLR,BKN,0.00,0.0,WeatherDisplay:10.37,2013-03-25 07:49:00,
2013-03-25 03:54:00,36.2,28.7,29.67,ESE,123,0.0,0.0,74,0.00,CLR,BKN,0.00,0.0,WeatherDisplay:10.37,2013-03-25 07:54:00,
2013-03-25 03:59:00,36.2,28.7,29.67,ESE,123,0.0,0.0,74,0.00,CLR,BKN,0.00,0.0,WeatherDisplay:10.37,2013-03-25 07:59:00,
2013-03-25 04:04:00,36.3,28.8,29.66,ESE,123,0.0,0.0,74,0.00,CLR,BKN,0.00,0.0,WeatherDisplay:10.37,2013-03-25 08:04:00,
2013-03-25 04:09:00,36.2,28.7,29.66,ESE,123,0.0,0.1,74,0.00,CLR,BKN,0.00,0.0,WeatherDisplay:10.37,2013-03-25 08:09:00,
2013-03-25 04:14:00,36.2,28.7,29.66,ESE,123,0.0,0.0,74,0.00,CLR,BKN,0.00,0.0,WeatherDisplay:10.37,2013-03-25 08:14:00,
2013-03-25 04:19:00,36.2,28.7,29.66,ESE,123,0.0,0.0,74,0.00,CLR,BKN,0.00,0.0,WeatherDisplay:10.37,2013-03-25 08:19:00,
2013-03-25 04:24:00,36.2,28.7,29.66,ESE,106,0.0,0.0,74,0.00,CLR,BKN,0.00,0.0,WeatherDisplay:10.37,2013-03-25 08:24:00,
2013-03-25 04:29:00,36.2,29.0,29.65,ESE,105,0.0,0.0,75,0.00,CLR,BKN,0.00,0.0,WeatherDisplay:10.37,2013-03-25 08:29:00,
2013-03-25 04:34:00,36.2,29.0,29.65,East,96,2.3,2.3,75,0.00,CLR,BKN,0.00,0.0,WeatherDisplay:10.37,2013-03-25 08:34:00,
2013-03-25 04:39:00,36.2,29.0,29.65,East,86,3.5,3.5,75,0.00,CLR,BKN,0.00,0.0,WeatherDisplay:10.37,2013-03-25 08:39:00,
2013-03-25 04:44:00,36.3,29.5,29.65,East,86,0.0,0.0,76,0.00,CLR,BKN,0.00,0.0,WeatherDisplay:10.37,2013-03-25 08:44:00,
2013-03-25 04:49:00,36.3,29.5,29.65,East,86,0.0,0.0,76,0.00,CLR,BKN,0.00,0.0,WeatherDisplay:10.37,2013-03-25 08:49:00,
2013-03-25 04:54:00,36.3,29.8,29.64,East,85,0.0,0.0,77,0.00,CLR,BKN,0.00,0.0,WeatherDisplay:10.37,2013-03-25 08:54:00,
2013-03-25 04:59:00,36.3,29.8,29.64,ENE,72,6.9,6.9,77,0.00,CLR,BKN,0.00,0.0,WeatherDisplay:10.37,2013-03-25 08:59:00,
2013-03-25 05:04:00,36.3,30.1,29.64,ENE,71,0.0,0.0,78,0.00,CLR,BKN,0.00,0.0,WeatherDisplay:10.37,2013-03-25 09:04:00,
2013-03-25 05:09:00,36.4,30.5,29.65,ENE,71,3.0,3.0,79,0.00,CLR,BKN,0.00,0.0,WeatherDisplay:10.37,2013-03-25 09:09:00,
2013-03-25 05:14:00,36.4,30.5,29.64,ENE,75,6.9,6.9,79,0.00,CLR,BKN,0.00,0.0,WeatherDisplay:10.37,2013-03-25 09:14:00,
2013-03-25 05:19:00,36.5,30.6,29.64,ENE,67,4.6,4.6,79,0.00,CLR,BKN,0.00,0.0,WeatherDisplay:10.37,2013-03-25 09:19:00,
2013-03-25 05:24:00,36.5,30.6,29.64,NE,53,5.8,5.8,79,0.00,CLR,BKN,0.00,0.0,WeatherDisplay:10.37,2013-03-25 09:24:00,
2013-03-25 05:29:00,36.5,30.9,29.64,NE,49,0.0,0.0,80,0.00,CLR,BKN,0.00,0.0,WeatherDisplay:10.37,2013-03-25 09:29:00,
2013-03-25 05:34:00,36.5,30.9,29.64,NE,38,7.0,7.0,80,0.00,CLR,BKN,0.00,0.0,WeatherDisplay:10.37,2013-03-25 09:34:00,
2013-03-25 05:39:00,36.5,30.9,29.64,NE,42,4.6,4.6,80,0.00,CLR,BKN,0.00,0.0,WeatherDisplay:10.37,2013-03-25 09:39:00,
2013-03-25 05:44:00,36.5,30.9,29.64,NE,46,5.0,5.0,80,0.00,CLR,BKN,0.00,0.0,WeatherDisplay:10.37,2013-03-25 09:44:00,
2013-03-25 05:49:00,36.6,31.3,29.64,NE,50,5.8,5.8,81,0.00,CLR,BKN,0.00,0.0,WeatherDisplay:10.37,2013-03-25 09:49:00,
2013-03-25 05:54:00,36.6,31.6,29.64,NE,49,4.6,4.6,82,0.00,CLR,BKN,0.00,0.0,WeatherDisplay:10.37,2013-03-25 09:54:00,
2013-03-25 05:59:00,36.6,31.9,29.64,NE,51,3.5,3.5,83,0.00,CLR,BKN,0.00,0.0,WeatherDisplay:10.37,2013-03-25 09:59:00,
2013-03-25 06:04:00,36.6,32.2,29.65,NNE,30,9.2,9.2,84,0.00,CLR,BKN,0.00,0.0,WeatherDisplay:10.37,2013-03-25 10:04:00,
2013-03-25 06:09:00,36.6,32.2,29.65,NE,42,0.0,0.0,84,0.00,CLR,BKN,0.00,0.0,WeatherDisplay:10.37,2013-03-25 10:09:00,
2013-03-25 06:14:00,36.6,32.5,29.65,NE,42,6.9,6.9,85,0.00,CLR,BKN,0.00,0.0,WeatherDisplay:10.37,2013-03-25 10:14:00,
2013-03-25 06:19:00,36.6,32.5,29.65,NNE,24,9.2,9.2,85,0.00,OVC,BKN,0.00,0.0,WeatherDisplay:10.37,2013-03-25 10:19:00,
2013-03-25 06:24:00,36.6,32.8,29.65,NNE,32,5.8,5.8,86,0.00,OVC,BKN,0.00,0.0,WeatherDisplay:10.37,2013-03-25 10:24:00,
2013-03-25 06:29:00,36.5,32.7,29.65,NNE,21,0.0,0.0,86,0.00,OVC,BKN,0.00,0.0,WeatherDisplay:10.37,2013-03-25 10:29:00,
2013-03-25 06:34:00,36.5,32.7,29.65,ENE,69,0.0,0.4,86,0.00,OVC,BKN,0.00,0.0,WeatherDisplay:10.37,2013-03-25 10:34:00,
2013-03-25 06:39:00,36.4,32.3,29.64,NE,51,10.0,10.0,85,0.00,OVC,BKN,0.00,0.0,WeatherDisplay:10.37,2013-03-25 10:39:00,
2013-03-25 06:44:00,36.4,32.0,29.64,NE,44,2.3,2.3,84,0.00,OVC,BKN,0.00,0.0,WeatherDisplay:10.37,2013-03-25 10:44:00,
2013-03-25 06:49:00,36.4,32.0,29.64,East,83,3.5,3.5,84,0.00,OVC,BKN,0.00,0.0,WeatherDisplay:10.37,2013-03-25 10:49:00,
2013-03-25 06:54:00,36.4,31.7,29.64,East,82,11.5,11.5,83,0.00,OVC,BKN,0.00,0.0,WeatherDisplay:10.37,2013-03-25 10:54:00,
2013-03-25 06:59:00,36.4,31.4,29.63,NE,55,11.5,11.5,82,0.00,OVC,BKN,0.00,0.0,WeatherDisplay:10.37,2013-03-25 10:59:00,
2013-03-25 07:04:00,36.3,31.3,29.63,East,96,11.5,11.5,82,0.00,OVC,BKN,0.00,0.0,WeatherDisplay:10.37,2013-03-25 11:04:00,
2013-03-25 07:09:00,36.3,31.0,29.63,NE,44,6.9,6.9,81,0.00,BKN,,0.00,5.0,WeatherDisplay:10.37,2013-03-25 11:09:00,
2013-03-25 07:14:00,36.3,31.0,29.63,ENE,78,10.4,10.4,81,0.00,BKN,,0.00,7.0,WeatherDisplay:10.37,2013-03-25 11:14:00,
2013-03-25 07:19:00,36.4,30.8,29.62,NE,35,5.0,5.0,80,0.00,BKN,,0.00,11.0,WeatherDisplay:10.37,2013-03-25 11:19:00,
2013-03-25 07:24:00,36.4,30.5,29.62,ENE,66,5.8,0.0,79,0.00,BKN,,0.00,12.0,WeatherDisplay:10.37,2013-03-25 11:24:00,
2013-03-25 07:29:00,36.4,30.5,29.62,ENE,76,15.0,15.0,79,0.00,BKN,,0.00,16.0,WeatherDisplay:10.37,2013-03-25 11:29:00,
2013-03-25 07:34:00,36.4,30.2,29.62,ENE,75,13.8,13.8,78,0.00,BKN,,0.00,18.0,WeatherDisplay:10.37,2013-03-25 11:34:00,
2013-03-25 07:39:00,36.5,30.0,29.61,NE,54,11.0,11.0,77,0.00,BKN,,0.00,21.0,WeatherDisplay:10.37,2013-03-25 11:39:00,
2013-03-25 07:44:00,36.5,29.7,29.61,NNE,33,13.0,13.0,76,0.00,BKN,,0.00,25.0,WeatherDisplay:10.37,2013-03-25 11:44:00,
2013-03-25 07:49:00,36.5,29.7,29.61,NNE,32,4.6,4.6,76,0.00,BKN,,0.00,28.0,WeatherDisplay:10.37,2013-03-25 11:49:00,
2013-03-25 07:54:00,36.5,29.3,29.61,NNE,22,11.5,11.5,75,0.00,BKN,,0.00,33.0,WeatherDisplay:10.37,2013-03-25 11:54:00,
2013-03-25 07:59:00,36.6,29.4,29.62,ENE,78,13.8,13.8,75,0.00,BKN,,0.00,35.0,WeatherDisplay:10.37,2013-03-25 11:59:00,
2013-03-25 08:04:00,36.6,29.4,29.61,NE,53,12.7,12.7,75,0.00,BKN,,0.00,37.0,WeatherDisplay:10.37,2013-03-25 12:04:00,
2013-03-25 08:09:00,36.7,29.2,29.61,ENE,59,11.0,11.0,74,0.00,BKN,,0.00,35.0,WeatherDisplay:10.37,2013-03-25 12:09:00,
2013-03-25 08:14:00,36.8,29.3,29.62,NE,51,10.4,10.4,74,0.00,BKN,,0.00,33.0,WeatherDisplay:10.37,2013-03-25 12:14:00,
2013-03-25 08:19:00,36.8,29.3,29.62,East,96,12.7,12.7,74,0.00,BKN,,0.00,37.0,WeatherDisplay:10.37,2013-03-25 12:19:00,
2013-03-25 08:24:00,36.8,29.0,29.62,North,355,6.0,6.0,73,0.00,BKN,,0.00,44.0,WeatherDisplay:10.37,2013-03-25 12:24:00,
2013-03-25 08:29:00,36.9,29.1,29.62,NE,41,4.0,4.0,73,0.00,BKN,,0.00,54.0,WeatherDisplay:10.37,2013-03-25 12:29:00,
2013-03-25 08:34:00,37.0,28.8,29.62,NNE,24,9.2,9.2,72,0.00,BKN,,0.00,63.0,WeatherDisplay:10.37,2013-03-25 12:34:00,
2013-03-25 08:39:00,37.0,28.5,29.63,ENE,62,12.7,12.7,71,0.00,BKN,,0.00,65.0,WeatherDisplay:10.37,2013-03-25 12:39:00,
2013-03-25 08:44:00,37.2,28.7,29.63,NE,36,6.9,6.9,71,0.00,BKN,,0.00,65.0,WeatherDisplay:10.37,2013-03-25 12:44:00,
2013-03-25 08:49:00,37.3,28.4,29.63,NE,42,3.5,3.5,70,0.00,BKN,,0.00,74.0,WeatherDisplay:10.37,2013-03-25 12:49:00,
2013-03-25 08:54:00,37.4,28.5,29.63,ENE,70,12.0,12.0,70,0.00,BKN,,0.00,90.0,WeatherDisplay:10.37,2013-03-25 12:54:00,
2013-03-25 08:59:00,37.5,28.2,29.63,East,88,10.4,10.4,69,0.00,BKN,,0.00,102.0,WeatherDisplay:10.37,2013-03-25 12:59:00,
2013-03-25 09:04:00,37.5,28.2,29.64,East,79,6.9,6.9,69,0.00,BKN,,0.00,107.0,WeatherDisplay:10.37,2013-03-25 13:04:00,
2013-03-25 09:09:00,37.6,28.3,29.63,NE,49,6.9,6.9,69,0.00,BKN,,0.00,111.0,WeatherDisplay:10.37,2013-03-25 13:09:00,
2013-03-25 09:14:00,37.7,28.4,29.64,NE,43,4.6,4.6,69,0.00,BKN,,0.00,109.0,WeatherDisplay:10.37,2013-03-25 13:14:00,
2013-03-25 09:19:00,37.7,28.4,29.63,ENE,59,5.8,5.8,69,0.00,BKN,,0.00,116.0,WeatherDisplay:10.37,2013-03-25 13:19:00,
2013-03-25 09:24:00,37.8,28.5,29.63,East,83,11.0,11.0,69,0.00,BKN,,0.00,128.0,WeatherDisplay:10.37,2013-03-25 13:24:00,
2013-03-25 09:29:00,37.7,28.4,29.63,NE,44,6.9,6.9,69,0.00,BKN,,0.00,137.0,WeatherDisplay:10.37,2013-03-25 13:29:00,
2013-03-25 09:34:00,37.8,28.2,29.63,NE,45,17.3,17.3,68,0.00,BKN,,0.00,125.0,WeatherDisplay:10.37,2013-03-25 13:34:00,
2013-03-25 09:39:00,37.8,28.2,29.62,NE,43,9.2,9.2,68,0.00,BKN,,0.00,111.0,WeatherDisplay:10.37,2013-03-25 13:39:00,
2013-03-25 09:44:00,37.8,28.2,29.62,North,349,3.5,3.5,68,0.00,BKN,,0.00,100.0,WeatherDisplay:10.37,2013-03-25 13:44:00,
2013-03-25 09:49:00,37.9,27.9,29.62,NE,51,11.5,11.5,67,0.00,BKN,,0.00,95.0,WeatherDisplay:10.37,2013-03-25 13:49:00,
2013-03-25 09:54:00,37.7,27.7,29.62,ENE,72,6.9,6.9,67,0.00,BKN,,0.00,100.0,WeatherDisplay:10.37,2013-03-25 13:54:00,
2013-03-25 09:59:00,37.7,27.7,29.61,ENE,67,10.4,10.4,67,0.00,BKN,,0.00,109.0,WeatherDisplay:10.37,2013-03-25 13:59:00,
2013-03-25 10:04:00,37.8,27.8,29.61,East,98,6.9,6.9,67,0.00,BKN,,0.00,120.0,WeatherDisplay:10.37,2013-03-25 14:04:00,
2013-03-25 10:09:00,37.9,27.9,29.61,NE,53,10.4,10.4,67,0.00,BKN,,0.00,125.0,WeatherDisplay:10.37,2013-03-25 14:09:00,
2013-03-25 10:14:00,37.9,27.9,29.61,East,92,10.4,10.4,67,0.00,BKN,,0.00,121.0,WeatherDisplay:10.37,2013-03-25 14:14:00,
2013-03-25 10:19:00,37.9,27.9,29.61,East,83,10.0,10.0,67,0.00,BKN,,0.00,114.0,WeatherDisplay:10.37,2013-03-25 14:19:00,
2013-03-25 10:24:00,37.9,28.3,29.60,East,84,10.4,10.4,68,0.00,BKN,,0.00,105.0,WeatherDisplay:10.37,2013-03-25 14:24:00,
2013-03-25 10:29:00,37.9,28.3,29.60,East,101,15.0,15.0,68,0.00,BKN,,0.00,107.0,WeatherDisplay:10.37,2013-03-25 14:29:00,
2013-03-25 10:35:00,38.0,28.4,29.60,NE,40,13.8,13.8,68,0.00,BKN,,0.00,107.0,WeatherDisplay:10.37,2013-03-25 14:35:00,
2013-03-25 10:40:00,37.9,28.3,29.60,ENE,68,10.4,10.4,68,0.00,BKN,,0.00,102.0,WeatherDisplay:10.37,2013-03-25 14:40:00,
2013-03-25 10:45:00,37.9,28.6,29.60,ENE,78,5.8,5.8,69,0.00,BKN,,0.00,95.0,WeatherDisplay:10.37,2013-03-25 14:45:00,
2013-03-25 10:50:00,38.0,28.7,29.60,ENE,73,10.4,10.4,69,0.00,BKN,,0.00,100.0,WeatherDisplay:10.37,2013-03-25 14:50:00,
2013-03-25 10:55:00,38.1,28.8,29.59,NE,41,15.0,15.0,69,0.00,BKN,,0.00,113.0,WeatherDisplay:10.37,2013-03-25 14:55:00,
2013-03-25 11:00:00,38.0,28.7,29.60,ENE,66,10.4,10.4,69,0.00,BKN,,0.00,120.0,WeatherDisplay:10.37,2013-03-25 15:00:00,
2013-03-25 11:05:00,38.0,29.1,29.59,NNE,15,3.5,3.5,70,0.00,BKN,,0.00,125.0,WeatherDisplay:10.37,2013-03-25 15:05:00,
2013-03-25 11:10:00,38.2,29.3,29.59,NNE,17,12.7,12.7,70,0.00,BKN,,0.00,134.0,WeatherDisplay:10.37,2013-03-25 15:10:00,
2013-03-25 11:15:00,38.3,29.4,29.60,NE,56,0.0,0.0,70,0.00,BKN,,0.00,144.0,WeatherDisplay:10.37,2013-03-25 15:15:00,
2013-03-25 11:20:00,38.3,29.4,29.59,NE,35,9.2,9.2,70,0.00,BKN,,0.00,151.0,WeatherDisplay:10.37,2013-03-25 15:20:00,
2013-03-25 11:25:00,38.5,29.9,29.59,NNE,32,6.9,6.9,71,0.00,BKN,,0.00,144.0,WeatherDisplay:10.37,2013-03-25 15:25:00,
2013-03-25 11:30:00,38.7,30.1,29.59,ESE,120,3.5,3.5,71,0.00,BKN,,0.00,134.0,WeatherDisplay:10.37,2013-03-25 15:30:00,
2013-03-25 11:35:00,38.6,30.0,29.59,North,355,11.5,11.5,71,0.00,BKN,,0.00,137.0,WeatherDisplay:10.37,2013-03-25 15:35:00,
2013-03-25 11:40:00,38.7,30.4,29.59,East,88,16.1,16.1,72,0.00,BKN,,0.00,144.0,WeatherDisplay:10.37,2013-03-25 15:40:00,
2013-03-25 11:45:00,38.7,30.8,29.58,ENE,62,11.5,11.5,73,0.00,BKN,,0.00,153.0,WeatherDisplay:10.37,2013-03-25 15:45:00,
2013-03-25 11:50:00,38.8,30.9,29.58,NNE,17,16.0,16.0,73,0.00,BKN,,0.00,163.0,WeatherDisplay:10.37,2013-03-25 15:50:00,
2013-03-25 11:55:00,38.9,31.3,29.58,ENE,65,11.5,11.5,74,0.00,BKN,,0.00,163.0,WeatherDisplay:10.37,2013-03-25 15:55:00,
2013-03-25 12:00:00,39.0,31.4,29.57,ENE,71,13.8,13.8,74,0.00,BKN,,0.00,158.0,WeatherDisplay:10.37,2013-03-25 16:00:00,
2013-03-25 12:05:00,39.0,31.1,29.57,NNE,26,18.4,18.4,73,0.00,BKN,,0.00,158.0,WeatherDisplay:10.37,2013-03-25 16:05:00,
2013-03-25 12:10:00,39.1,31.2,29.57,ENE,75,11.5,11.5,73,0.00,BKN,,0.00,158.0,WeatherDisplay:10.37,2013-03-25 16:10:00,
2013-03-25 12:15:00,39.2,31.3,29.57,ENE,64,14.0,14.0,73,0.00,BKN,,0.00,178.0,WeatherDisplay:10.37,2013-03-25 16:15:00,
2013-03-25 12:20:00,39.4,31.1,29.57,East,95,11.5,11.5,72,0.00,BKN,,0.00,178.0,WeatherDisplay:10.37,2013-03-25 16:20:00,
2013-03-25 12:25:00,39.6,31.0,29.56,NE,44,11.5,11.5,71,0.00,BKN,,0.00,151.0,WeatherDisplay:10.37,2013-03-25 16:25:00,
2013-03-25 12:30:00,39.5,30.5,29.56,ENE,59,25.0,25.0,70,0.00,BKN,,0.00,153.0,WeatherDisplay:10.37,2013-03-25 16:30:00,
2013-03-25 12:35:00,39.4,29.7,29.56,NE,38,12.7,12.7,68,0.00,BKN,,0.00,160.0,WeatherDisplay:10.37,2013-03-25 16:35:00,
2013-03-25 12:40:00,39.5,29.8,29.55,East,94,15.0,15.0,68,0.00,BKN,,0.00,156.0,WeatherDisplay:10.37,2013-03-25 16:40:00,
2013-03-25 12:45:00,39.7,30.0,29.55,ENE,71,19.6,19.6,68,0.00,BKN,,0.00,156.0,WeatherDisplay:10.37,2013-03-25 16:45:00,
2013-03-25 12:50:00,39.7,30.0,29.55,ENE,66,3.5,3.5,68,0.00,BKN,,0.00,148.0,WeatherDisplay:10.37,2013-03-25 16:50:00,
2013-03-25 12:55:00,39.9,30.2,29.54,ENE,74,11.5,11.5,68,0.00,BKN,,0.00,128.0,WeatherDisplay:10.37,2013-03-25 16:55:00,
2013-03-25 13:00:00,39.8,29.7,29.55,NE,44,9.2,9.2,67,0.00,BKN,,0.00,105.0,WeatherDisplay:10.37,2013-03-25 17:00:00,
2013-03-25 13:05:00,39.4,29.3,29.54,ENE,59,10.4,10.4,67,0.00,BKN,,0.00,95.0,WeatherDisplay:10.37,2013-03-25 17:05:00,
2013-03-25 13:10:00,38.9,29.6,29.54,East,80,7.0,7.0,69,0.00,BKN,,0.00,98.0,WeatherDisplay:10.37,2013-03-25 17:10:00,
2013-03-25 13:15:00,38.2,30.0,29.54,ENE,67,21.9,21.9,72,0.00,BKN,,0.00,116.0,WeatherDisplay:10.37,2013-03-25 17:15:00,
2013-03-25 13:20:00,37.3,30.1,29.53,ENE,61,19.6,19.6,75,0.00,BKN,,0.00,116.0,WeatherDisplay:10.37,2013-03-25 17:20:00,
2013-03-25 13:25:00,36.9,30.4,29.53,ESE,106,15.0,15.0,77,0.00,BKN,,0.00,118.0,WeatherDisplay:10.37,2013-03-25 17:25:00,
2013-03-25 13:30:00,36.6,30.4,29.53,East,84,10.4,10.4,78,0.00,BKN,,0.00,113.0,WeatherDisplay:10.37,2013-03-25 17:30:00,
2013-03-25 13:35:00,36.5,30.6,29.52,NE,51,6.0,6.0,79,0.00,BKN,,0.00,127.0,WeatherDisplay:10.37,2013-03-25 17:35:00,
2013-03-25 13:40:00,36.5,30.6,29.52,ESE,103,12.7,12.7,79,0.00,BKN,,0.00,135.0,WeatherDisplay:10.37,2013-03-25 17:40:00,
2013-03-25 13:45:00,36.7,31.1,29.52,NNE,15,11.5,11.5,80,0.00,BKN,,0.00,135.0,WeatherDisplay:10.37,2013-03-25 17:45:00,
2013-03-25 13:50:00,36.7,30.8,29.51,SE,132,18.4,18.4,79,0.00,BKN,,0.00,137.0,WeatherDisplay:10.37,2013-03-25 17:50:00,
2013-03-25 13:55:00,36.9,30.7,29.50,ENE,76,17.3,17.3,78,0.00,BKN,,0.00,127.0,WeatherDisplay:10.37,2013-03-25 17:55:00,
2013-03-25 14:00:00,37.3,30.7,29.51,ENE,74,9.2,9.2,77,0.00,BKN,,0.00,134.0,WeatherDisplay:10.37,2013-03-25 18:00:00,
2013-03-25 14:05:00,37.5,30.9,29.50,ENE,64,10.4,10.4,77,0.00,BKN,,0.00,144.0,WeatherDisplay:10.37,2013-03-25 18:05:00,
2013-03-25 14:10:00,37.7,31.5,29.50,East,96,19.6,19.6,78,0.00,BKN,,0.00,137.0,WeatherDisplay:10.37,2013-03-25 18:10:00,
2013-03-25 14:15:00,37.3,31.7,29.50,East,86,11.5,11.5,80,0.00,BKN,,0.00,195.0,WeatherDisplay:10.37,2013-03-25 18:15:00,
2013-03-25 14:20:00,37.3,32.0,29.49,NE,51,18.4,18.4,81,0.00,BKN,,0.00,214.0,WeatherDisplay:10.37,2013-03-25 18:20:00,
2013-03-25 14:25:00,37.3,32.6,29.49,East,80,13.8,13.8,83,0.00,BKN,,0.00,237.0,WeatherDisplay:10.37,2013-03-25 18:25:00,
2013-03-25 14:30:00,37.3,32.9,29.49,East,80,12.7,12.7,84,0.00,BKN,,0.00,195.0,WeatherDisplay:10.37,2013-03-25 18:30:00,
2013-03-25 14:35:00,37.4,33.3,29.49,NNE,28,9.2,9.2,85,0.00,BKN,,0.00,183.0,WeatherDisplay:10.37,2013-03-25 18:35:00,
2013-03-25 14:40:00,37.4,33.3,29.50,ESE,115,10.4,10.4,85,0.00,BKN,,0.00,130.0,WeatherDisplay:10.37,2013-03-25 18:40:00,
2013-03-25 14:46:00,37.3,32.9,29.49,ENE,69,6.9,6.9,84,0.00,BKN,,0.00,158.0,WeatherDisplay:10.37,2013-03-25 18:46:00,
2013-03-25 14:51:00,37.3,33.2,29.49,NE,47,5.8,5.8,85,0.00,BKN,,0.00,148.0,WeatherDisplay:10.37,2013-03-25 18:51:00,
2013-03-25 14:56:00,37.4,33.3,29.49,ENE,57,4.6,4.6,85,0.00,BKN,,0.00,121.0,WeatherDisplay:10.37,2013-03-25 18:56:00,
2013-03-25 15:01:00,37.4,33.0,29.49,East,92,12.7,12.7,84,0.00,BKN,,0.00,130.0,WeatherDisplay:10.37,2013-03-25 19:01:00,
2013-03-25 15:06:00,37.5,33.4,29.48,ESE,114,8.1,8.1,85,0.00,BKN,,0.00,130.0,WeatherDisplay:10.37,2013-03-25 19:06:00,
2013-03-25 15:11:00,37.6,33.2,29.48,East,80,5.8,5.8,84,0.00,BKN,,0.00,146.0,WeatherDisplay:10.37,2013-03-25 19:11:00,
2013-03-25 15:16:00,37.7,33.6,29.48,NE,46,3.5,3.5,85,0.00,BKN,,0.00,134.0,WeatherDisplay:10.37,2013-03-25 19:16:00,
2013-03-25 15:21:00,37.8,33.7,29.49,ESE,103,9.2,9.2,85,0.00,BKN,,0.00,121.0,WeatherDisplay:10.37,2013-03-25 19:21:00,
2013-03-25 15:26:00,38.0,33.9,29.49,ENE,76,9.0,9.0,85,0.00,BKN,,0.00,102.0,WeatherDisplay:10.37,2013-03-25 19:26:00,
2013-03-25 15:31:00,37.9,33.8,29.48,East,80,9.2,9.2,85,0.00,BKN,,0.00,83.0,WeatherDisplay:10.37,2013-03-25 19:31:00,
2013-03-25 15:36:00,37.8,33.7,29.48,ENE,74,6.9,6.9,85,0.00,BKN,,0.00,62.0,WeatherDisplay:10.37,2013-03-25 19:36:00,
2013-03-25 15:41:00,37.8,33.7,29.48,ENE,71,0.0,0.0,85,0.00,BKN,,0.00,54.0,WeatherDisplay:10.37,2013-03-25 19:41:00,
2013-03-25 15:46:00,37.9,33.8,29.48,ENE,71,10.4,10.4,85,0.00,BKN,,0.00,69.0,WeatherDisplay:10.37,2013-03-25 19:46:00,
2013-03-25 15:51:00,37.7,33.6,29.48,ESE,109,6.9,6.9,85,0.00,BKN,,0.00,83.0,WeatherDisplay:10.37,2013-03-25 19:51:00,
2013-03-25 15:56:00,37.7,33.9,29.48,East,92,3.5,3.5,86,0.00,BKN,,0.00,93.0,WeatherDisplay:10.37,2013-03-25 19:56:00,
2013-03-25 16:01:00,37.6,33.8,29.48,East,91,4.6,4.6,86,0.00,BKN,,0.00,74.0,WeatherDisplay:10.37,2013-03-25 20:01:00,
2013-03-25 16:06:00,37.5,34.0,29.48,East,82,3.5,0.0,87,0.00,BKN,,0.00,72.0,WeatherDisplay:10.37,2013-03-25 20:06:00,
2013-03-25 16:11:00,37.5,34.0,29.48,East,80,5.8,5.8,87,0.00,BKN,,0.00,70.0,WeatherDisplay:10.37,2013-03-25 20:11:00,
2013-03-25 16:16:00,37.5,34.3,29.48,NE,55,5.8,5.8,88,0.00,BKN,,0.00,79.0,WeatherDisplay:10.37,2013-03-25 20:16:00,
2013-03-25 16:21:00,37.5,34.3,29.48,ENE,60,9.2,9.2,88,0.00,BKN,,0.00,60.0,WeatherDisplay:10.37,2013-03-25 20:21:00,
2013-03-25 16:26:00,37.4,34.2,29.48,East,87,4.6,4.6,88,0.00,BKN,,0.00,67.0,WeatherDisplay:10.37,2013-03-25 20:26:00,
2013-03-25 16:31:00,37.4,34.2,29.48,NE,55,3.5,3.5,88,0.00,BKN,,0.00,70.0,WeatherDisplay:10.37,2013-03-25 20:31:00,
2013-03-25 16:36:00,37.3,34.1,29.48,ENE,60,8.1,8.1,88,0.00,BKN,,0.00,81.0,WeatherDisplay:10.37,2013-03-25 20:36:00,
2013-03-25 16:41:00,37.1,34.2,29.48,NNE,30,7.0,7.0,89,0.00,BKN,,0.00,69.0,WeatherDisplay:10.37,2013-03-25 20:41:00,
2013-03-25 16:46:00,37.0,34.1,29.48,East,80,4.6,4.6,89,0.00,BKN,,0.00,62.0,WeatherDisplay:10.37,2013-03-25 20:46:00,
2013-03-25 16:51:00,37.0,34.1,29.48,ENE,67,2.3,2.3,89,0.00,BKN,,0.00,54.0,WeatherDisplay:10.37,2013-03-25 20:51:00,
2013-03-25 16:56:00,36.9,34.2,29.48,ENE,66,9.2,9.2,90,0.00,BKN,,0.00,49.0,WeatherDisplay:10.37,2013-03-25 20:56:00,
2013-03-25 17:01:00,36.8,34.1,29.48,NE,38,3.5,3.5,90,0.00,BKN,,0.00,42.0,WeatherDisplay:10.37,2013-03-25 21:01:00,
2013-03-25 17:06:00,36.7,34.0,29.49,East,83,3.5,3.5,90,0.00,BKN,,0.00,40.0,WeatherDisplay:10.37,2013-03-25 21:06:00,
2013-03-25 17:12:00,36.7,34.0,29.49,East,84,5.0,5.0,90,0.00,BKN,,0.00,40.0,WeatherDisplay:10.37,2013-03-25 21:12:00,
2013-03-25 17:17:00,36.5,33.8,29.49,NE,52,3.5,3.5,90,0.01,RA,BKN,0.01,39.0,WeatherDisplay:10.37,2013-03-25 21:17:00,
2013-03-25 17:22:00,36.5,34.1,29.49,ENE,67,3.5,3.5,91,0.01,BKN,,0.01,39.0,WeatherDisplay:10.37,2013-03-25 21:22:00,
2013-03-25 17:27:00,36.5,34.1,29.49,ENE,67,0.0,0.0,91,0.01,BKN,,0.01,37.0,WeatherDisplay:10.37,2013-03-25 21:27:00,
2013-03-25 17:32:00,36.4,34.0,29.49,NE,36,4.6,4.6,91,0.01,BKN,,0.01,33.0,WeatherDisplay:10.37,2013-03-25 21:32:00,
2013-03-25 17:37:00,36.4,34.0,29.49,NNE,24,11.0,11.0,91,0.01,BKN,,0.01,25.0,WeatherDisplay:10.37,2013-03-25 21:37:00,
2013-03-25 17:42:00,36.4,34.0,29.49,NE,36,8.1,8.1,91,0.01,BKN,,0.01,23.0,WeatherDisplay:10.37,2013-03-25 21:42:00,
2013-03-25 17:47:00,36.3,33.9,29.49,NE,34,3.5,3.5,91,0.02,RA,BKN,0.02,21.0,WeatherDisplay:10.37,2013-03-25 21:47:00,
2013-03-25 17:52:00,36.3,34.2,29.49,NE,40,5.8,5.8,92,0.02,RA,BKN,0.02,25.0,WeatherDisplay:10.37,2013-03-25 21:52:00,
2013-03-25 17:58:00,36.2,34.1,29.49,NNE,31,6.9,6.9,92,0.02,BKN,,0.02,26.0,WeatherDisplay:10.37,2013-03-25 21:58:00,
2013-03-25 18:03:00,36.2,34.1,29.49,NNE,13,5.0,5.0,92,0.02,BKN,,0.02,19.0,WeatherDisplay:10.37,2013-03-25 22:03:00,
2013-03-25 18:08:00,36.1,34.0,29.50,North,11,3.5,3.5,92,0.02,BKN,,0.02,16.0,WeatherDisplay:10.37,2013-03-25 22:08:00,
2013-03-25 18:13:00,36.1,34.0,29.50,North,11,4.6,4.6,92,0.01,BKN,,0.02,11.0,WeatherDisplay:10.37,2013-03-25 22:13:00,
2013-03-25 18:18:00,36.1,34.0,29.50,NNE,17,5.8,5.8,92,0.01,OVC,BKN,0.02,7.0,WeatherDisplay:10.37,2013-03-25 22:18:00,
2013-03-25 18:23:00,35.9,33.8,29.50,North,9,3.5,3.5,92,0.02,RA,BKN,0.03,16.0,WeatherDisplay:10.37,2013-03-25 22:23:00,
2013-03-25 18:28:00,35.6,33.5,29.50,NNE,19,3.5,3.5,92,0.02,RA,BKN,0.03,12.0,WeatherDisplay:10.37,2013-03-25 22:28:00,
2013-03-25 18:33:00,35.6,33.8,29.51,NNE,18,4.6,4.6,93,0.03,RA,BKN,0.04,11.0,WeatherDisplay:10.37,2013-03-25 22:33:00,
2013-03-25 18:38:00,35.6,33.8,29.51,NNE,16,6.0,6.0,93,0.03,RA,BKN,0.04,11.0,WeatherDisplay:10.37,2013-03-25 22:38:00,
2013-03-25 18:43:00,35.5,33.7,29.51,NNE,17,3.5,0.0,93,0.03,BKN,,0.04,11.0,WeatherDisplay:10.37,2013-03-25 22:43:00,
2013-03-25 18:48:00,35.6,33.8,29.51,North,355,5.8,5.8,93,0.02,BKN,,0.04,7.0,WeatherDisplay:10.37,2013-03-25 22:48:00,
2013-03-25 18:53:00,35.6,33.8,29.52,North,5,0.0,0.0,93,0.02,OVC,BKN,0.04,0.0,WeatherDisplay:10.37,2013-03-25 22:53:00,
2013-03-25 18:58:00,35.6,33.8,29.52,North,360,4.6,0.0,93,0.02,OVC,BKN,0.04,0.0,WeatherDisplay:10.37,2013-03-25 22:58:00,
2013-03-25 19:03:00,35.7,33.9,29.52,North,5,0.0,0.0,93,0.03,RA,BKN,0.05,0.0,WeatherDisplay:10.37,2013-03-25 23:03:00,
2013-03-25 19:08:00,35.7,33.9,29.52,North,360,0.0,0.0,93,0.03,RA,BKN,0.05,0.0,WeatherDisplay:10.37,2013-03-25 23:08:00,
2013-03-25 19:13:00,35.7,33.9,29.52,North,360,0.0,0.0,93,0.03,OVC,BKN,0.05,0.0,WeatherDisplay:10.37,2013-03-25 23:13:00,
2013-03-25 19:18:00,35.7,33.9,29.52,North,355,6.0,6.0,93,0.03,OVC,BKN,0.05,0.0,WeatherDisplay:10.37,2013-03-25 23:18:00,
2013-03-25 19:23:00,35.7,33.9,29.53,North,355,0.0,0.0,93,0.03,RA,BKN,0.06,0.0,WeatherDisplay:10.37,2013-03-25 23:23:00,
2013-03-25 19:28:00,35.8,34.2,29.53,North,355,0.0,0.0,94,0.03,RA,BKN,0.06,0.0,WeatherDisplay:10.37,2013-03-25 23:28:00,
2013-03-25 19:33:00,35.7,34.1,29.53,North,355,3.5,0.0,94,0.02,OVC,BKN,0.06,0.0,WeatherDisplay:10.37,2013-03-25 23:33:00,
2013-03-25 19:38:00,35.8,34.2,29.53,North,355,0.0,0.0,94,0.02,OVC,BKN,0.06,0.0,WeatherDisplay:10.37,2013-03-25 23:38:00,
2013-03-25 19:43:00,35.8,34.2,29.53,North,355,2.3,0.0,94,0.03,RA,BKN,0.07,0.0,WeatherDisplay:10.37,2013-03-25 23:43:00,
2013-03-25 19:48:00,35.8,34.2,29.54,North,350,4.6,4.6,94,0.03,RA,BKN,0.07,0.0,WeatherDisplay:10.37,2013-03-25 23:48:00,
2013-03-25 19:53:00,35.9,34.3,29.54,North,351,3.5,0.0,94,0.03,,BKN,0.07,0.0,WeatherDisplay:10.37,2013-03-25 23:53:00,
2013-03-25 19:58:00,35.9,34.3,29.54,NNW,348,5.8,5.8,94,0.03,CLR,BKN,0.07,0.0,WeatherDisplay:10.37,2013-03-25 23:58:00,
2013-03-25 20:03:00,36.0,34.4,29.54,North,355,6.9,6.9,94,0.02,CLR,BKN,0.07,0.0,WeatherDisplay:10.37,2013-03-26 00:03:00,
2013-03-25 20:08:00,36.0,34.4,29.54,North,351,3.5,0.0,94,0.02,CLR,BKN,0.07,0.0,WeatherDisplay:10.37,2013-03-26 00:08:00,
2013-03-25 20:13:00,36.1,34.5,29.54,North,355,0.0,0.0,94,0.02,CLR,BKN,0.07,0.0,WeatherDisplay:10.37,2013-03-26 00:13:00,
2013-03-25 20:18:00,36.1,34.5,29.55,North,355,0.0,0.0,94,0.02,CLR,BKN,0.07,0.0,WeatherDisplay:10.37,2013-03-26 00:18:00,
2013-03-25 20:23:00,36.2,34.6,29.55,North,355,0.0,0.0,94,0.01,CLR,BKN,0.07,0.0,WeatherDisplay:10.37,2013-03-26 00:23:00,
2013-03-25 20:28:00,36.2,34.6,29.55,North,355,0.0,0.0,94,0.01,CLR,BKN,0.07,0.0,WeatherDisplay:10.37,2013-03-26 00:28:00,
2013-03-25 20:33:00,36.3,34.7,29.56,North,355,0.0,0.0,94,0.01,CLR,BKN,0.07,0.0,WeatherDisplay:10.37,2013-03-26 00:33:00,
2013-03-25 20:38:00,36.4,34.6,29.56,North,355,0.0,0.0,93,0.01,CLR,BKN,0.07,0.0,WeatherDisplay:10.37,2013-03-26 00:38:00,
2013-03-25 20:43:00,36.5,34.9,29.56,North,355,1.0,0.0,94,0.00,CLR,BKN,0.07,0.0,WeatherDisplay:10.37,2013-03-26 00:43:00,
2013-03-25 20:48:00,36.6,34.8,29.57,North,355,3.5,3.5,93,0.00,CLR,BKN,0.07,0.0,WeatherDisplay:10.37,2013-03-26 00:48:00,
2013-03-25 20:53:00,36.4,34.6,29.57,NNE,23,12.7,12.7,93,0.01,RA,BKN,0.08,0.0,WeatherDisplay:10.37,2013-03-26 00:53:00,
2013-03-25 20:58:00,36.2,34.4,29.57,East,99,6.9,6.9,93,0.01,RA,BKN,0.08,0.0,WeatherDisplay:10.37,2013-03-26 00:58:00,
2013-03-25 21:03:00,35.9,33.8,29.57,East,99,1.1,0.0,92,0.01,CLR,BKN,0.08,0.0,WeatherDisplay:10.37,2013-03-26 01:03:00,
2013-03-25 21:08:00,35.8,34.0,29.58,East,98,0.0,0.0,93,0.02,RA,BKN,0.09,0.0,WeatherDisplay:10.37,2013-03-26 01:08:00,
2013-03-25 21:13:00,35.7,33.9,29.58,East,99,0.0,0.0,93,0.02,RA,BKN,0.09,0.0,WeatherDisplay:10.37,2013-03-26 01:13:00,
2013-03-25 21:18:00,35.6,33.8,29.58,East,87,3.5,3.5,93,0.02,CLR,BKN,0.09,0.0,WeatherDisplay:10.37,2013-03-26 01:18:00,
2013-03-25 21:23:00,35.6,33.8,29.58,East,86,0.0,0.0,93,0.02,CLR,BKN,0.09,0.0,WeatherDisplay:10.37,2013-03-26 01:23:00,
2013-03-25 21:28:00,35.5,33.7,29.58,East,86,0.0,0.0,93,0.02,CLR,BKN,0.09,0.0,WeatherDisplay:10.37,2013-03-26 01:28:00,
2013-03-25 21:33:00,35.5,33.7,29.58,East,86,0.0,0.0,93,0.02,CLR,BKN,0.09,0.0,WeatherDisplay:10.37,2013-03-26 01:33:00,
2013-03-25 21:38:00,35.6,33.8,29.58,East,86,0.0,0.0,93,0.02,CLR,BKN,0.09,0.0,WeatherDisplay:10.37,2013-03-26 01:38:00,
2013-03-25 21:43:00,35.7,33.9,29.58,East,86,0.0,0.0,93,0.02,CLR,BKN,0.09,0.0,WeatherDisplay:10.37,2013-03-26 01:43:00,
2013-03-25 21:48:00,35.7,33.9,29.58,East,87,0.0,0.0,93,0.02,CLR,BKN,0.09,0.0,WeatherDisplay:10.37,2013-03-26 01:48:00,
2013-03-25 21:53:00,35.7,33.9,29.58,East,87,0.0,0.0,93,0.01,CLR,BKN,0.09,0.0,WeatherDisplay:10.37,2013-03-26 01:53:00,
2013-03-25 21:58:00,35.9,34.1,29.58,ENE,60,5.0,5.0,93,0.01,CLR,BKN,0.09,0.0,WeatherDisplay:10.37,2013-03-26 01:58:00,
2013-03-25 22:03:00,36.1,34.0,29.58,North,355,8.1,8.1,92,0.01,CLR,BKN,0.09,0.0,WeatherDisplay:10.37,2013-03-26 02:03:00,
2013-03-25 22:08:00,36.4,34.0,29.59,NE,44,15.0,15.0,91,0.00,CLR,BKN,0.09,0.0,WeatherDisplay:10.37,2013-03-26 02:08:00,
2013-03-25 22:13:00,36.7,34.0,29.59,East,101,9.2,9.2,90,0.00,CLR,BKN,0.09,0.0,WeatherDisplay:10.37,2013-03-26 02:13:00,
2013-03-25 22:18:00,36.4,33.7,29.59,ESE,102,3.5,3.5,90,0.00,CLR,BKN,0.09,0.0,WeatherDisplay:10.37,2013-03-26 02:18:00,
2013-03-25 22:23:00,36.0,33.4,29.59,East,98,3.5,3.5,90,0.00,CLR,BKN,0.09,0.0,WeatherDisplay:10.37,2013-03-26 02:23:00,
2013-03-25 22:28:00,35.8,33.4,29.59,East,98,0.0,0.0,91,0.00,CLR,BKN,0.09,0.0,WeatherDisplay:10.37,2013-03-26 02:28:00,
2013-03-25 22:33:00,35.6,33.2,29.59,East,98,0.0,0.0,91,0.00,CLR,BKN,0.09,0.0,WeatherDisplay:10.37,2013-03-26 02:33:00,
2013-03-25 22:38:00,35.5,33.4,29.59,East,96,0.0,0.0,92,0.00,CLR,BKN,0.09,0.0,WeatherDisplay:10.37,2013-03-26 02:38:00,
2013-03-25 22:43:00,35.5,33.4,29.59,East,98,0.0,0.0,92,0.00,CLR,BKN,0.09,0.0,WeatherDisplay:10.37,2013-03-26 02:43:00,
2013-03-25 22:48:00,35.5,33.4,29.59,East,98,0.0,0.0,92,0.00,CLR,BKN,0.09,0.0,WeatherDisplay:10.37,2013-03-26 02:48:00,
2013-03-25 22:53:00,35.5,33.4,29.59,East,96,0.0,0.0,92,0.00,CLR,BKN,0.09,0.0,WeatherDisplay:10.37,2013-03-26 02:53:00,
2013-03-25 22:58:00,35.6,33.5,29.59,East,98,0.0,0.0,92,0.00,CLR,BKN,0.09,0.0,WeatherDisplay:10.37,2013-03-26 02:58:00,
2013-03-25 23:03:00,35.6,33.5,29.59,East,98,0.0,0.0,92,0.00,CLR,BKN,0.09,0.0,WeatherDisplay:10.37,2013-03-26 03:03:00,
2013-03-25 23:08:00,35.5,33.7,29.59,East,98,0.0,0.0,93,0.00,CLR,BKN,0.09,0.0,WeatherDisplay:10.37,2013-03-26 03:08:00,
2013-03-25 23:13:00,35.6,33.8,29.59,East,97,0.0,0.0,93,0.00,CLR,BKN,0.09,0.0,WeatherDisplay:10.37,2013-03-26 03:13:00,
2013-03-25 23:18:00,35.7,33.9,29.59,East,98,0.0,0.0,93,0.00,CLR,BKN,0.09,0.0,WeatherDisplay:10.37,2013-03-26 03:18:00,
2013-03-25 23:23:00,35.7,33.9,29.59,East,97,0.0,0.0,93,0.00,CLR,BKN,0.09,0.0,WeatherDisplay:10.37,2013-03-26 03:23:00,
2013-03-25 23:28:00,35.7,33.9,29.59,East,96,0.0,0.0,93,0.00,CLR,BKN,0.09,0.0,WeatherDisplay:10.37,2013-03-26 03:28:00,
2013-03-25 23:33:00,35.7,33.9,29.60,East,97,0.0,0.0,93,0.00,CLR,BKN,0.09,0.0,WeatherDisplay:10.37,2013-03-26 03:33:00,
2013-03-25 23:38:00,35.7,33.9,29.59,East,97,0.0,0.0,93,0.00,CLR,BKN,0.09,0.0,WeatherDisplay:10.37,2013-03-26 03:38:00,
2013-03-25 23:43:00,35.6,33.8,29.60,East,98,0.0,0.0,93,0.00,CLR,BKN,0.09,0.0,WeatherDisplay:10.37,2013-03-26 03:43:00,
2013-03-25 23:48:00,35.5,33.7,29.60,East,97,0.0,0.0,93,0.00,CLR,BKN,0.09,0.0,WeatherDisplay:10.37,2013-03-26 03:48:00,
2013-03-25 23:53:00,35.5,33.7,29.60,East,98,0.0,0.0,93,0.00,CLR,BKN,0.09,0.0,WeatherDisplay:10.37,2013-03-26 03:53:00,
2013-03-25 23:58:00,35.5,33.7,29.60,East,97,0.0,0.0,93,0.00,CLR,BKN,0.09,0.0,WeatherDisplay:10.37,2013-03-26 03:58:00,